| time (UTC) | temp F | wind direction | speed MPH | gust MPH | rain 1hr in | rain 24hr in | rain mn in | humidity % | barometer mb |
| 20260906200029 | 99 | 189 | 3.0 | 10.0 | 0.00 | 0.00 | 0.00 | 39 | 1010.7 |
| 20260906194528 | 100 | 181 | 4.0 | 6.0 | 0.00 | 0.00 | 0.00 | 39 | 1010.8 |
| 20260906193028 | 100 | 181 | 2.0 | 8.0 | 0.00 | 0.00 | 0.00 | 38 | 1011.1 |
| 20260906191527 | 100 | 152 | 5.0 | 10.0 | 0.00 | 0.00 | 0.00 | 38 | 1011.2 |
| 20260906190024 | 101 | 171 | 5.0 | 10.0 | 0.00 | 0.00 | 0.00 | 39 | 1011.4 |
| 20260906184520 | 99 | 209 | 4.0 | 8.0 | 0.00 | 0.00 | 0.00 | 40 | 1011.4 |
| 20260906183023 | 100 | 167 | 3.0 | 10.0 | 0.00 | 0.00 | 0.00 | 40 | 1011.7 |
| 20260906181512 | 98 | 86 | 1.0 | 12.0 | 0.00 | 0.00 | 0.00 | 42 | 1012.1 |
| 20260906180010 | 98 | 116 | 5.0 | 11.0 | 0.00 | 0.00 | 0.00 | 41 | 1012.3 |
| 20260906174511 | 97 | 111 | 2.0 | 9.0 | 0.00 | 0.00 | 0.00 | 44 | 1012.6 |
| 20260906173005 | 97 | 237 | 2.0 | 6.0 | 0.00 | 0.00 | 0.00 | 44 | 1012.7 |
| 20260906171605 | 96 | 237 | 2.0 | 8.0 | 0.00 | 0.00 | 0.00 | 47 | 1013.0 |
| 20260906170058 | 96 | 242 | 5.0 | 8.0 | 0.00 | 0.00 | 0.00 | 47 | 1013.3 |
| 20260906164555 | 95 | 231 | 4.0 | 6.0 | 0.00 | 0.00 | 0.00 | 47 | 1013.3 |
| 20260906163108 | 94 | 223 | 3.0 | 5.0 | 0.00 | 0.00 | 0.00 | 49 | 1013.4 |
| 20260906161544 | 94 | 223 | 1.0 | 5.0 | 0.00 | 0.00 | 0.00 | 50 | 1013.4 |
| 20260906160041 | 93 | 223 | 0.0 | 4.0 | 0.00 | 0.00 | 0.00 | 52 | 1013.4 |
| 20260906154536 | 92 | 223 | 1.0 | 6.0 | 0.00 | 0.00 | 0.00 | 53 | 1013.5 |
| 20260906153038 | 91 | 223 | 5.0 | 7.0 | 0.00 | 0.00 | 0.00 | 55 | 1013.3 |
| 20260906151531 | 90 | 223 | 6.0 | 9.0 | 0.00 | 0.00 | 0.00 | 57 | 1013.3 |
| 20260906150024 | 88 | 220 | 3.0 | 9.0 | 0.00 | 0.00 | 0.00 | 61 | 1013.3 |
| 20260906144520 | 86 | 215 | 5.0 | 9.0 | 0.00 | 0.00 | 0.00 | 63 | 1013.4 |
| 20260906143015 | 85 | 203 | 2.0 | 7.0 | 0.00 | 0.00 | 0.00 | 64 | 1013.5 |
| 20260906141513 | 84 | 202 | 4.0 | 9.0 | 0.00 | 0.00 | 0.00 | 65 | 1013.3 |
| 20260906140009 | 82 | 200 | 4.0 | 7.0 | 0.00 | 0.00 | 0.00 | 67 | 1013.3 |
| 20260906134502 | 82 | 198 | 5.0 | 9.0 | 0.00 | 0.00 | 0.00 | 68 | 1013.3 |
| 20260906133122 | 81 | 196 | 2.0 | 6.0 | 0.00 | 0.00 | 0.00 | 69 | 1013.1 |
| 20260906131612 | 80 | 196 | 0.0 | 5.0 | 0.00 | 0.00 | 0.00 | 70 | 1013.1 |
| 20260906130100 | 79 | 196 | 1.0 | 5.0 | 0.00 | 0.00 | 0.00 | 71 | 1012.9 |
| 20260906124548 | 79 | 196 | 2.0 | 6.0 | 0.00 | 0.00 | 0.00 | 71 | 1012.7 |
| 20260906123048 | 78 | 196 | 1.0 | 5.0 | 0.00 | 0.00 | 0.00 | 72 | 1012.4 |
| 20260906121541 | 78 | 196 | 3.0 | 7.0 | 0.00 | 0.00 | 0.00 | 72 | 1012.4 |
| 20260906120039 | 77 | 196 | 0.0 | 0.0 | 0.00 | 0.00 | 0.00 | 72 | 1012.2 |
| 20260906114538 | 77 | 196 | 0.0 | 0.0 | 0.00 | 0.00 | 0.00 | 72 | 1012.2 |
| 20260906113039 | 77 | 196 | 0.0 | 2.0 | 0.00 | 0.00 | 0.00 | 72 | 1012.2 |
| 20260906111536 | 78 | 196 | 1.0 | 3.0 | 0.00 | 0.00 | 0.00 | 71 | 1011.9 |
| 20260906110033 | 78 | 196 | 1.0 | 5.0 | 0.00 | 0.00 | 0.00 | 71 | 1011.8 |
| 20260906104531 | 79 | 196 | 3.0 | 6.0 | 0.00 | 0.00 | 0.00 | 70 | 1011.7 |
| 20260906103028 | 79 | 196 | 3.0 | 5.0 | 0.00 | 0.00 | 0.00 | 68 | 1011.7 |
| 20260906101526 | 80 | 196 | 2.0 | 5.0 | 0.00 | 0.00 | 0.00 | 67 | 1011.5 |
| 20260906100025 | 80 | 196 | 2.0 | 5.0 | 0.00 | 0.00 | 0.00 | 66 | 1011.5 |
| 20260906094526 | 81 | 196 | 3.0 | 7.0 | 0.00 | 0.00 | 0.00 | 65 | 1011.4 |
| 20260906093030 | 81 | 196 | 5.0 | 8.0 | 0.00 | 0.00 | 0.00 | 65 | 1011.4 |
| 20260906091519 | 82 | 196 | 5.0 | 8.0 | 0.00 | 0.00 | 0.00 | 64 | 1011.3 |
| 20260906090017 | 82 | 136 | 4.0 | 6.0 | 0.00 | 0.00 | 0.00 | 64 | 1011.3 |
| 20260906084517 | 82 | 134 | 2.0 | 5.0 | 0.00 | 0.00 | 0.00 | 64 | 1011.2 |
| 20260906083017 | 82 | 134 | 2.0 | 5.0 | 0.00 | 0.00 | 0.00 | 63 | 1011.0 |
| 20260906081520 | 82 | 134 | 1.0 | 3.0 | 0.00 | 0.00 | 0.00 | 63 | 1011.0 |
| 20260906080014 | 82 | 134 | 1.0 | 5.0 | 0.00 | 0.00 | 0.00 | 62 | 1011.2 |
| 20260906074512 | 83 | 134 | 1.0 | 5.0 | 0.00 | 0.00 | 0.00 | 61 | 1011.2 |
| 20260906073009 | 83 | 134 | 1.0 | 6.0 | 0.00 | 0.00 | 0.00 | 61 | 1011.1 |
| 20260906071507 | 84 | 134 | 2.0 | 5.0 | 0.00 | 0.00 | 0.00 | 60 | 1011.0 |
| 20260906070006 | 84 | 134 | 1.0 | 3.0 | 0.00 | 0.00 | 0.00 | 60 | 1011.0 |
| 20260906064509 | 84 | 134 | 1.0 | 4.0 | 0.00 | 0.00 | 0.00 | 60 | 1011.2 |
| 20260906063005 | 84 | 134 | 0.0 | 4.0 | 0.00 | 0.00 | 0.00 | 59 | 1011.1 |
| 20260906061504 | 84 | 134 | 1.0 | 2.0 | 0.00 | 0.00 | 0.00 | 59 | 1011.1 |
| 20260906060003 | 84 | 134 | 0.0 | 0.0 | 0.00 | 0.00 | 0.00 | 58 | 1011.2 |
| 20260906054601 | 84 | 134 | 0.0 | 0.0 | 0.00 | 0.00 | 0.00 | 58 | 1011.1 |
| 20260906053058 | 85 | 134 | 0.0 | 4.0 | 0.00 | 0.00 | 0.00 | 58 | 1011.0 |
| 20260906051559 | 85 | 134 | 1.0 | 3.0 | 0.00 | 0.00 | 0.00 | 57 | 1011.0 |
| 20260906050156 | 86 | 134 | 1.0 | 4.0 | 0.00 | 0.00 | 0.00 | 56 | 1010.9 |
| 20260906044553 | 86 | 134 | 0.0 | 2.0 | 0.00 | 0.00 | 0.00 | 55 | 1011.1 |
| 20260906043054 | 86 | 134 | 1.0 | 4.0 | 0.00 | 0.00 | 0.00 | 55 | 1011.0 |
| 20260906041552 | 87 | 134 | 2.0 | 5.0 | 0.00 | 0.00 | 0.00 | 54 | 1011.0 |
| 20260906040052 | 88 | 134 | 0.0 | 2.0 | 0.00 | 0.00 | 0.00 | 52 | 1011.2 |
| 20260906034554 | 88 | 134 | 1.0 | 5.0 | 0.00 | 0.00 | 0.00 | 51 | 1011.1 |
| 20260906033054 | 89 | 134 | 3.0 | 5.0 | 0.00 | 0.00 | 0.00 | 50 | 1011.0 |
| 20260906031552 | 90 | 134 | 2.0 | 10.0 | 0.00 | 0.00 | 0.00 | 49 | 1011.0 |
| 20260906030053 | 91 | 149 | 2.0 | 4.0 | 0.00 | 0.00 | 0.00 | 47 | 1011.0 |
| 20260906024549 | 91 | 148 | 0.0 | 2.0 | 0.00 | 0.00 | 0.00 | 46 | 1010.7 |
| 20260906023049 | 92 | 149 | 0.0 | 0.0 | 0.00 | 0.00 | 0.00 | 46 | 1010.8 |
| 20260906021556 | 92 | 149 | 0.0 | 0.0 | 0.00 | 0.00 | 0.00 | 45 | 1010.5 |
| 20260906020048 | 93 | 148 | 0.0 | 0.0 | 0.00 | 0.00 | 0.00 | 45 | 1010.4 |
| 20260906014549 | 93 | 149 | 0.0 | 1.0 | 0.00 | 0.00 | 0.00 | 44 | 1010.1 |
| 20260906013046 | 94 | 149 | 0.0 | 0.0 | 0.00 | 0.00 | 0.00 | 43 | 1010.0 |
| 20260906011559 | 95 | 148 | 0.0 | 4.0 | 0.00 | 0.00 | 0.00 | 42 | 1009.8 |
| 20260906010045 | 96 | 149 | 0.0 | 2.0 | 0.00 | 0.00 | 0.00 | 41 | 1009.5 |
| 20260906004545 | 97 | 148 | 1.0 | 5.0 | 0.00 | 0.00 | 0.00 | 40 | 1009.4 |
| 20260906003046 | 97 | 149 | 2.0 | 5.0 | 0.00 | 0.00 | 0.00 | 39 | 1009.4 |
| 20260906001543 | 98 | 148 | 3.0 | 7.0 | 0.00 | 0.00 | 0.00 | 38 | 1009.3 |
| 20260906000043 | 98 | 149 | 3.0 | 7.0 | 0.00 | 0.00 | 0.00 | 37 | 1009.2 |
| 20260905234542 | 99 | 148 | 2.0 | 9.0 | 0.00 | 0.00 | 0.00 | 37 | 1008.9 |
| 20260905233102 | 99 | 150 | 4.0 | 9.0 | 0.00 | 0.00 | 0.00 | 37 | 1008.9 |
| 20260905231551 | 99 | 159 | 5.0 | 10.0 | 0.00 | 0.00 | 0.00 | 37 | 1009.1 |
| 20260905230046 | 99 | 148 | 6.0 | 10.0 | 0.00 | 0.00 | 0.00 | 36 | 1009.0 |
| 20260905224559 | 99 | 132 | 6.0 | 11.0 | 0.00 | 0.00 | 0.00 | 36 | 1008.9 |
| 20260905223039 | 100 | 126 | 4.0 | 9.0 | 0.00 | 0.00 | 0.00 | 37 | 1008.9 |
| 20260905221541 | 99 | 213 | 2.0 | 11.0 | 0.00 | 0.00 | 0.00 | 37 | 1009.0 |
| 20260905220040 | 100 | 108 | 4.0 | 13.0 | 0.00 | 0.00 | 0.00 | 38 | 1009.2 |
| 20260905214533 | 100 | 103 | 3.0 | 10.0 | 0.00 | 0.00 | 0.00 | 37 | 1009.3 |
| 20260905213034 | 100 | 175 | 7.0 | 15.0 | 0.00 | 0.00 | 0.00 | 37 | 1009.5 |
| 20260905211531 | 99 | 188 | 7.0 | 11.0 | 0.00 | 0.00 | 0.00 | 38 | 1009.7 |
| 20260905210029 | 99 | 107 | 7.0 | 13.0 | 0.00 | 0.00 | 0.00 | 39 | 1010.0 |
| 20260905204520 | 99 | 188 | 5.0 | 12.0 | 0.00 | 0.00 | 0.00 | 39 | 1010.2 |
| 20260905203015 | 98 | 169 | 2.0 | 10.0 | 0.00 | 0.00 | 0.00 | 40 | 1010.3 |
| 20260905201521 | 98 | 167 | 4.0 | 12.0 | 0.00 | 0.00 | 0.00 | 40 | 1010.8 |